Terminal Aerodrome Forecast
Issued by NWS

Home | Current Version | Previous Version | Graphics & Text | Print | Product List | Glossary On
Versions: 1 2 3 4 5 6 7 8 9 10 11 12 13 14 15 16 17 18 19
902
FTUS43 KLSX 232142 AAB
TAFSUS
TAF AMD
KSUS 232142Z 2322/2418 32008KT P6SM VCTS OVC035CB
      TEMPO 2322/2324 4SM -SHRA BKN020
     FM240100 32006KT P6SM BKN050
     FM241200 30006KT P6SM BKN025=

USA.gov is the U.S. government's official web portal to all federal, state and local government web resources and services.